Location: La Rouaudière
(47.8306°N, 1.1919°W)
Time: 23:42:12
(UTC+00:00)

Daily predictions for brighter satellites

Satellite Brightness Start Highest point End
(mag) Time Altitude Azimuth Time Altitude Azimuth Time Altitude Azimuth
BREEZE-M DEB (TANK) 4.5 20:34:54 10° W 20:38:49 82° N 20:56:15 10° E
Aureole 3 4.3 20:38:50 10° SSE 20:43:16 50° E 20:48:48 10° NNE
Cosmos 1707 Rocket 3.6 20:39:06 10° S 20:43:30 71° E 20:47:54 10° NNE
Cosmos 1758 3.5 20:41:11 10° NNW 20:45:07 73° W 20:49:03 10° S
Cosmos 2219 Rocket 2.3 20:43:30 10° NNW 20:49:14 88° WSW 20:54:55 10° SSE
ATLAS CENTAUR R/B 3.8 20:48:50 10° W 20:51:49 25° NW 20:54:54 10° NNE
BREEZE-M DEB (TANK) 3.4 20:48:21 10° WSW 20:51:56 80° SSE 21:04:36 10° ENE
ATLAS 2AS CENTAUR R/B 3.4 20:47:54 10° NW 20:54:21 47° WSW 21:00:37 10° S
CZ-4 R/B 4.4 20:53:04 10° WSW 20:54:30 12° W 20:55:56 10° WNW
Cosmos 1733 Rocket 3.3 20:53:02 10° NNW 20:57:29 76° W 21:01:54 10° S
NOSS 5 (C) 4.4 20:55:47 10° NW 20:58:57 66° NE 21:02:10 10° SE
Cosmos 1455 2.8 20:56:29 10° N 20:59:45 35° ENE 21:02:59 10° SE
Spot 2 Rocket 3.7 20:57:13 10° SSE 21:02:12 62° ENE 21:07:15 10° N
Cosmos 1655 Rocket 4.3 20:57:12 10° SSW 21:03:37 79° W 21:10:02 10° N
SPOT 3 Rocket 3.9 20:59:12 10° SSE 21:04:13 56° ENE 21:09:18 10° N
Resurs 01 Rocket 4.2 21:05:16 10° SW 21:08:15 18° W 21:11:15 10° NW
Meteor 2-20 Rocket 4.5 21:05:05 10° N 21:11:15 74° E 21:17:08 10° SSE
SeaSat 1 2.8 21:08:35 10° SE 21:13:21 59° NE 21:18:12 10° NNW
Cosmos 2360 Rocket 3.8 21:13:54 10° NW 21:18:43 29° WSW 21:23:30 10° SSW
Cosmos 158 Rocket 4.2 21:13:40 10° NNW 21:18:53 60° ENE 21:23:25 13° SE
Cosmos 1953 2.2 21:15:25 10° N 21:19:14 70° E 21:22:42 12° SSE
Cosmos 1908 Rocket 3.7 21:15:11 10° N 21:19:29 61° ENE 21:23:22 12° SSE
COSMOS 2428 2.8 21:14:04 10° NNW 21:19:49 79° ENE 21:25:01 13° SSE
Cosmos 2208 Rocket 4.1 21:15:21 10° NNW 21:20:31 64° ENE 21:25:05 13° SE
Cosmos 1782 Rocket 4.4 21:19:21 10° N 21:23:22 36° ENE 21:26:41 14° SE
CENTAUR R/B 3.8 21:23:45 12° SE 21:26:21 16° ESE 21:30:02 10° ENE
Ariane Rocket 3.0 21:22:31 10° SSE 21:27:36 87° WSW 21:32:43 10° NNW
Cosmos 1300 Rocket 4.5 21:24:44 10° N 21:28:42 34° ENE 21:31:51 15° SE
EXPRESS MD2 2.5 21:26:09 10° WNW 21:28:51 58° N 21:30:59 10° E
Cosmos 2084 Rocket 4.1 21:27:13 10° S 21:31:07 34° ESE 21:34:55 10° ENE
Cosmos 1486 Rocket 4.3 21:32:01 10° S 21:36:57 46° ESE 21:41:56 10° NNE
Cosmos 1315 Rocket 3.2 21:34:28 10° SSW 21:38:25 63° WNW 21:42:24 10° N
BREEZE-M DEB (TANK) 3.7 21:37:55 10° W 21:43:52 40° NNW 21:46:17 10° ENE
GP-B 3.7 21:40:00 10° NNE 21:44:11 41° E 21:47:06 18° SSE
MetOp-A 4.2 21:40:03 15° SSE 21:44:18 65° ENE 21:49:24 10° N
ARIANE 5 R/B 4.1 21:41:49 12° ESE 21:44:52 25° ENE 21:48:26 10° N
SJ 16-02 3.4 21:41:41 10° WSW 21:45:27 29° WNW 21:49:17 10° N
NOSS 0 Rocket 4.0 21:39:50 10° NNW 21:46:08 86° ENE 21:51:08 17° SSE
BlueWalker 3 3.0 21:43:26 10° W 21:47:04 47° NNW 21:50:43 10° ENE
Cosmos 371 Rocket 3.5 21:43:55 12° S 21:48:14 50° ESE 21:52:54 10° NNE
SL-4 R/B 2.7 21:45:28 10° WNW 21:49:06 38° SW 21:51:27 20° SSE
USA 234 3.4 21:44:55 10° ENE 21:51:14 49° SE 21:57:31 10° SSW
MOS 1 Rocket 4.1 21:46:23 10° S 21:51:34 54° W 21:56:36 10° NNW
Terra 2.8 21:48:20 10° SSW 21:52:47 41° W 21:57:15 10° NNW
Spot 1 4.3 21:51:19 10° NNE 21:56:03 74° ESE 22:00:40 12° S
Okean 1-7 3.9 21:52:27 10° SSW 21:56:38 48° WNW 22:00:49 10° N
SL-16 R/B 3.8 21:54:08 10° N 21:58:57 27° NE 22:03:42 10° ESE
H-2A R/B 4.4 21:56:27 11° ESE 21:59:15 19° ENE 22:02:13 10° NNE
Cosmos 1386 Rocket 4.5 21:54:35 11° S 22:00:36 81° E 22:06:45 10° N
Cosmos 2237 Rocket 2.3 21:55:15 10° NNW 22:00:55 69° ENE 22:05:00 19° SE
Landsat 5 3.4 21:57:22 10° NNE 22:01:33 81° ESE 22:05:09 14° S
Cosmos 1703 Rocket 3.9 21:57:37 10° SSW 22:02:02 66° W 22:06:28 10° N
COSMOS 2455 2.8 21:57:14 10° SSW 22:03:15 88° ESE 22:09:20 10° NE
Cosmos 1242 Rocket 3.4 22:01:49 10° SW 22:04:19 32° WNW 22:06:49 10° N
Cosmos 1745 Rocket 4.0 21:58:43 13° S 22:04:24 75° E 22:10:46 10° NNE
CZ-4C R/B 1.8 22:00:57 10° SW 22:05:26 86° SE 22:11:08 10° NE
USA 281 4.0 22:00:04 13° ESE 22:05:40 44° NE 22:11:51 10° NNW
Cosmos 2227 Rocket 3.1 22:03:20 19° SSE 22:06:19 31° ESE 22:11:14 10° NE
Nadezhda 1 Rocket 4.0 22:01:58 10° N 22:08:16 86° W 22:13:03 18° S
Meteor 2-5 Rocket 4.3 22:05:17 19° SSE 22:09:01 42° E 22:14:26 10° NNE
Cosmos 773 Rocket 3.9 22:09:30 10° NNW 22:14:42 88° WSW 22:18:03 23° SSE
Cosmos 1980 3.7 22:09:45 10° NNW 22:15:28 89° WSW 22:19:14 22° SSE
Okean 2 Rocket 4.5 22:12:39 10° NNE 22:16:30 27° ENE 22:18:55 17° ESE
Cosmos 304 Rocket 3.7 22:13:19 14° SSW 22:17:23 77° ESE 22:22:10 10° NNE
Cosmos 2297 Rocket 2.1 22:19:32 10° SSW 22:25:06 79° ESE 22:30:47 10° NNE
ALOS 2 4.2 22:25:43 15° ESE 22:28:18 24° ENE 22:31:51 10° N
Cosmos 2219 Rocket 4.5 22:29:18 10° WNW 22:32:18 15° W 22:35:19 10° SW
CZ-2C R/B 3.7 22:30:21 10° NNE 22:34:46 65° ESE 22:37:08 27° S
Cosmos 1703 3.0 22:33:06 30° S 22:34:46 81° E 22:38:28 10° NNE
Cosmos 1408 2.9 22:33:30 22° SW 22:35:03 44° WNW 22:37:57 10° N
Cosmos 2098 Rocket 4.0 22:28:45 10° N 22:35:16 69° ENE 22:38:52 25° SSE
NOSS 3-2 (A) 4.0 22:33:40 24° SE 22:35:21 29° ESE 22:40:23 10° NE
Cosmos 2181 Rocket 4.3 22:32:02 10° N 22:38:05 56° ENE 22:41:46 24° SSE
Cosmos 2219 4.1 22:37:54 24° SE 22:40:02 31° ESE 22:44:56 10° NE
Cosmos 1777 Rocket 4.0 22:39:06 17° SSW 22:43:13 88° ESE 22:48:32 10° NNE
Cosmos 332 Rocket 3.9 22:41:58 26° S 22:44:35 62° ESE 22:49:25 10° NNE
BREEZE-M DEB (TANK) 3.8 22:42:22 10° WNW 22:45:28 76° N 22:54:44 10° E
Cosmos 1825 3.0 22:44:58 28° ESE 22:45:31 29° E 22:48:31 10° NNE
Cosmos 2263 Rocket 3.4 22:44:08 22° SE 22:45:51 25° ESE 22:50:19 10° NE
Meteor 1-24 Rocket 3.7 22:42:45 23° S 22:46:28 82° E 22:52:00 10° NNE
Cosmos 2221 Rocket 4.3 22:46:44 29° SE 22:48:22 40° E 22:52:30 10° NNE
SeaSat 1 4.1 22:48:17 15° SSW 22:51:06 23° WSW 22:55:01 10° NW
Cosmos 1503 Rocket 4.3 22:48:34 12° SSW 22:53:31 66° WNW 22:58:47 10° NNE
Sich 1 Rocket 3.8 22:49:53 10° N 22:54:13 60° ENE 22:56:03 32° SE
Cosmos 2242 Rocket 4.3 22:52:19 17° SSW 22:55:36 50° WNW 23:00:04 10° N
Okean 1 Rocket 3.8 22:51:30 10° N 22:55:39 41° ENE 22:57:31 27° SE
Cosmos 1538 Rocket 4.4 22:50:43 10° NNW 22:55:52 56° ENE 22:58:51 25° SE
PSLV R/B 3.7 22:53:09 10° NNE 22:57:08 79° ESE 22:58:45 35° S
Cosmos 1818 4.2 22:55:08 10° NNW 23:00:31 51° NE 23:04:38 17° ESE
Cosmos 1709 Rocket 4.4 22:58:05 16° SSW 23:03:11 62° WNW 23:09:28 10° N
Cosmos 1892 2.6 23:03:07 45° SE 23:03:52 58° E 23:07:21 10° NNE
Spot 4 3.9 23:03:31 31° SSE 23:05:47 76° ENE 23:10:38 10° N
Cosmos 1025 Rocket 4.0 23:12:05 28° SE 23:13:19 33° E 23:17:11 10° NNE
SL-23 DEB 4.5 23:09:25 10° WSW 23:13:37 85° SSE 23:21:06 10° ENE
Nadezhda 3 Rocket 4.5 23:08:06 10° N 23:14:10 51° ENE 23:17:41 24° SE
CENTAUR R/B 2.4 23:10:49 16° SW 23:15:33 84° SE 23:22:40 10° NE
Cosmos 405 Rocket 3.5 23:13:18 10° NNW 23:16:53 41° W 23:18:05 31° SW
ARIANE 5 R/B 3.5 23:19:17 26° SW 23:21:05 38° W 23:25:11 10° NNW
Cosmos 1455 Rocket 4.1 23:20:42 10° N 23:24:50 36° ENE 23:26:44 25° ESE
BlueWalker 3 3.5 23:22:17 10° WNW 23:25:45 35° N 23:29:14 10° ENE
Cosmos 1328 3.9 23:25:24 44° SSE 23:26:20 59° E 23:30:10 10° NNE
Cosmos 1898 Rocket 4.1 23:25:20 31° SE 23:27:02 41° ESE 23:31:52 10° NE
Cosmos 1378 Rocket 3.8 23:25:05 30° SSW 23:27:05 63° WNW 23:31:29 10° N
Aureole 1 Rocket 3.3 23:26:55 40° SSE 23:27:58 50° ESE 23:32:47 10° NNE
Cosmos 2184 Rocket 4.0 23:26:26 29° S 23:29:54 77° E 23:36:18 10° NNE
Cosmos 1674 Rocket 3.7 23:29:17 33° SSW 23:31:05 68° W 23:35:24 10° N
H-2A R/B 2.9 23:32:26 35° SSW 23:33:50 51° W 23:37:56 10° NNW
USA 234 3.6 23:27:56 10° NE 23:34:25 67° NNW 23:40:53 10° WSW
SL-16 R/B 2.3 23:37:52 10° NNW 23:43:31 65° WSW 23:46:02 33° S
Cosmos 2237 Rocket 3.9 23:40:19 10° NW 23:44:24 21° W 23:46:48 16° SW
Cosmos 990 Rocket 4.2 23:45:21 25° SW 23:48:20 66° WNW 23:53:28 10° NNE
Cosmos 2154 Rocket 4.0 23:45:18 30° S 23:48:36 86° E 23:54:57 10° N
Cosmos 1943 3.8 23:44:28 10° NNW 23:49:59 52° ENE 23:53:53 19° SE
USA 281 3.7 23:46:56 27° SSW 23:50:08 45° WSW 23:56:26 10° NW
Cosmos 2227 Rocket 3.0 23:45:04 12° SW 23:50:09 48° NW 23:55:39 10° NNE
Cosmos 2082 3.6 23:50:40 32° SSW 23:53:21 76° ESE 23:58:59 10° NNE
PSLV R/B 3.4 23:49:31 10° NNE 23:53:42 73° ESE 23:54:55 44° S
USA 238 DEB 4.4 23:52:03 25° SE 23:54:01 31° ESE 23:59:39 10° NE
USA 238 4.5 23:52:05 25° SE 23:54:03 30° ESE 23:59:41 10° NE
Okean 2 Rocket 4.2 23:50:30 10° NNW 23:54:33 34° W 23:56:12 25° SW
CZ-4C R/B 4.3 23:50:22 10° W 23:54:39 27° NNW 23:59:53 10° NNE
Cosmos 292 Rocket 3.7 23:52:49 35° SSW 23:54:51 88° WNW 23:59:42 10° NNE
